TimeEST,TemperatureF,Dew PointF,Humidity,Sea Level PressureIn,VisibilityMPH,Wind Direction,Wind SpeedMPH,Gust SpeedMPH,PrecipitationIn,Events,Conditions,WindDirDegrees,DateUTC
12:45 AM,66.2,66.2,100,30.10,4.0,Calm,Calm,-,0.01,,Mostly Cloudy,0,2013-01-20 05:45:00
12:50 AM,66.2,66.2,100,30.10,1.8,NW,3.5,-,0.01,,Mostly Cloudy,310,2013-01-20 05:50:00
12:53 AM,66.9,66.0,97,30.11,1.0,NW,3.5,-,0.01,,Mostly Cloudy,320,2013-01-20 05:53:00
12:57 AM,66.2,66.2,100,30.10,0.5,NW,4.6,-,N/A,Fog,Fog,320,2013-01-20 05:57:00
1:53 AM,66.0,66.0,100,30.10,0.2,Calm,Calm,-,N/A,Fog,Fog,0,2013-01-20 06:53:00
2:53 AM,64.9,64.9,100,30.08,0.2,NW,3.5,-,N/A,Fog,Fog,310,2013-01-20 07:53:00
3:53 AM,64.0,64.0,100,30.08,0.5,WNW,3.5,-,N/A,Fog,Fog,290,2013-01-20 08:53:00
4:00 AM,64.4,64.4,100,30.07,1.0,Calm,Calm,-,N/A,,Mist,0,2013-01-20 09:00:00
4:08 AM,64.4,64.4,100,30.07,0.5,Calm,Calm,-,N/A,Fog,Fog,0,2013-01-20 09:08:00
4:53 AM,64.0,64.0,100,30.08,0.5,Calm,Calm,-,N/A,Fog,Fog,0,2013-01-20 09:53:00
4:58 AM,64.4,64.4,100,30.08,0.8,Calm,Calm,-,N/A,,Overcast,0,2013-01-20 09:58:00
5:07 AM,64.4,64.4,100,30.08,2.0,Calm,Calm,-,N/A,,Overcast,0,2013-01-20 10:07:00
5:16 AM,64.4,64.4,100,30.08,4.0,Calm,Calm,-,N/A,,Overcast,0,2013-01-20 10:16:00
5:53 AM,64.9,64.9,100,30.10,8.0,West,4.6,-,N/A,,Overcast,280,2013-01-20 10:53:00
6:45 AM,66.2,66.2,100,30.11,7.0,WNW,6.9,-,N/A,,Overcast,290,2013-01-20 11:45:00
6:53 AM,66.0,66.0,100,30.11,2.0,WNW,4.6,-,N/A,,Overcast,290,2013-01-20 11:53:00
7:00 AM,66.2,66.2,100,30.11,1.0,Calm,Calm,-,N/A,,Overcast,0,2013-01-20 12:00:00
7:07 AM,66.2,66.2,100,30.11,0.8,West,3.5,-,N/A,,Mist,280,2013-01-20 12:07:00
7:15 AM,66.2,66.2,100,30.11,0.5,Calm,Calm,-,N/A,Fog,Fog,0,2013-01-20 12:15:00
7:53 AM,66.0,66.0,100,30.13,0.2,WNW,3.5,-,N/A,Fog,Fog,300,2013-01-20 12:53:00
8:53 AM,68.0,68.0,100,30.15,0.8,NW,3.5,-,N/A,,Mist,310,2013-01-20 13:53:00
9:04 AM,69.8,69.8,100,30.14,2.0,NNW,3.5,-,N/A,,Overcast,330,2013-01-20 14:04:00
9:13 AM,69.8,69.8,100,30.14,4.0,North,3.5,-,N/A,,Mostly Cloudy,350,2013-01-20 14:13:00
9:24 AM,69.8,69.8,100,30.15,8.0,North,3.5,-,N/A,,Scattered Clouds,350,2013-01-20 14:24:00
9:53 AM,70.0,70.0,100,30.16,10.0,Calm,Calm,-,N/A,,Clear,0,2013-01-20 14:53:00
10:53 AM,75.0,68.0,79,30.14,10.0,West,5.8,-,N/A,,Clear,280,2013-01-20 15:53:00
11:53 AM,77.0,64.9,66,30.11,10.0,Calm,Calm,-,N/A,,Partly Cloudy,0,2013-01-20 16:53:00
12:53 PM,77.0,66.9,71,30.07,10.0,East,6.9,-,N/A,,Partly Cloudy,80,2013-01-20 17:53:00
1:53 PM,75.9,66.0,71,30.04,10.0,ENE,8.1,-,N/A,,Scattered Clouds,70,2013-01-20 18:53:00
2:53 PM,75.0,66.9,76,30.03,10.0,ENE,8.1,-,N/A,,Mostly Cloudy,60,2013-01-20 19:53:00
4:53 PM,73.9,68.0,82,30.05,10.0,ENE,9.2,-,N/A,,Mostly Cloudy,60,2013-01-20 21:53:00
5:53 PM,73.0,66.0,79,30.05,10.0,NNE,9.2,-,N/A,,Mostly Cloudy,30,2013-01-20 22:53:00
6:53 PM,73.9,68.0,82,30.05,10.0,NNE,5.8,-,N/A,,Overcast,20,2013-01-20 23:53:00
7:53 PM,73.0,66.9,81,30.06,10.0,NE,6.9,-,N/A,,Overcast,40,2013-01-21 00:53:00
8:53 PM,72.0,68.0,87,30.06,10.0,North,6.9,-,N/A,,Overcast,360,2013-01-21 01:53:00
9:33 PM,71.6,69.8,94,30.07,6.0,South,8.1,-,0.02,Rain,Rain,190,2013-01-21 02:33:00
9:38 PM,71.6,69.8,94,30.08,1.8,Variable,3.5,-,0.13,Rain,Heavy Rain,0,2013-01-21 02:38:00
9:53 PM,70.0,66.9,90,30.08,1.2,Variable,3.5,-,0.38,Rain,Heavy Rain,0,2013-01-21 02:53:00
10:01 PM,69.8,69.8,100,30.08,3.0,North,4.6,-,0.01,Rain,Light Rain,360,2013-01-21 03:01:00
10:12 PM,69.8,68.0,94,30.08,1.8,Calm,Calm,-,0.14,Rain,Heavy Rain,0,2013-01-21 03:12:00
10:26 PM,69.8,69.8,100,30.07,2.0,NE,12.7,-,0.40,Rain,Heavy Rain,40,2013-01-21 03:26:00
10:37 PM,69.8,69.8,100,30.07,6.0,NE,8.1,-,0.41,Rain,Light Rain,40,2013-01-21 03:37:00
10:53 PM,69.1,69.1,100,30.07,10.0,NNE,5.8,-,0.41,,Overcast,30,2013-01-21 03:53:00
11:53 PM,69.1,69.1,100,30.06,10.0,NNW,5.8,-,0.01,,Scattered Clouds,340,2013-01-21 04:53:00